Theta_e
290 281 279 279 281 283 283 284 285 287 287 287 287 286 286 287 289 292 292 294 296 292 291 292 292 292 293 295 297 298 297 295 297 299 300 300 301 302 301 301 304 315 325 331 334 337 340 340 339 338 338 338 337 337 338 338 338 338 338 337 337 338 339 340 339 338 337 335 336 336 336 335 336 336 336 335 334 335 335 336 337 338 338 338 338 338
288 280 280 283 285 285 284 284 285 285 286 286 285 285 284 287 286 291 292 294 296 292 290 292 292 292 293 295 297 298 298 296 296 296 298 299 300 302 302 301 300 308 323 331 332 336 339 339 338 338 337 338 335 336 337 337 338 338 338 337 337 338 339 340 339 337 337 335 335 335 335 334 335 335 334 333 333 334 336 337 337 338 338 338 337 336
280 279 283 285 287 287 285 285 285 284 284 285 284 284 283 284 288 291 293 295 294 293 290 290 289 292 293 294 296 297 297 299 299 297 297 298 299 300 301 302 300 312 323 330 332 335 338 338 336 337 337 338 337 337 337 338 338 338 338 338 338 338 339 339 339 337 336 334 335 336 333 336 333 334 336 334 335 336 336 337 337 338 337 336 334 335
278 281 284 287 287 285 285 285 284 284 284 282 282 281 280 285 284 282 290 293 294 292 289 291 289 290 294 296 295 297 298 299 300 299 299 299 298 298 300 301 302 316 326 329 330 333 336 336 335 336 336 337 337 336 337 337 337 338 338 338 338 338 339 338 338 337 336 336 335 336 336 337 336 333 334 334 335 335 335 335 337 336 335 334 333 333
280 284 288 286 286 285 284 285 283 281 279 282 283 283 283 283 285 286 286 291 293 293 293 290 289 289 291 292 294 297 299 299 300 301 300 299 300 300 301 301 302 311 327 330 330 332 334 334 334 335 336 338 337 336 337 337 337 338 338 338 338 338 338 338 338 336 336 336 334 336 336 336 335 333 333 332 331 334 335 334 333 333 334 334 333 333
283 287 288 286 285 284 283 282 283 283 279 280 283 284 285 286 285 287 289 288 286 286 291 290 280 284 290 291 293 295 296 297 299 299 299 300 299 299 298 299 301 315 325 330 330 332 334 334 334 335 336 336 337 337 337 338 338 338 338 338 338 338 337 337 337 336 336 335 333 333 333 332 331 330 329 329 330 331 332 332 331 332 333 334 333 333
283 287 286 285 284 283 283 282 283 284 280 279 281 286 286 286 286 286 286 286 281 280 288 291 283 276 282 288 291 293 295 295 297 297 299 300 301 299 300 300 302 315 323 329 331 332 333 333 333 334 335 336 336 337 338 338 338 338 338 338 338 338 337 338 337 336 336 333 333 333 333 332 331 330 329 328 331 332 331 331 331 331 331 333 333 332
286 284 284 284 282 282 281 280 284 284 281 279 286 286 286 286 285 285 286 285 284 289 291 291 288 282 279 287 292 293 294 294 295 296 297 299 300 300 300 300 303 317 325 328 330 331 333 333 333 334 335 336 337 337 338 337 337 337 337 338 338 338 337 338 337 336 335 333 332 332 332 332 331 331 329 329 331 332 331 331 331 331 331 330 331 332
284 282 283 282 282 281 279 283 284 285 282 282 286 287 285 286 286 287 286 284 285 284 281 286 289 282 282 285 290 293 291 293 294 295 296 297 299 300 301 300 303 319 326 329 330 331 332 333 333 334 335 337 337 337 337 337 337 338 338 338 338 337 337 337 337 336 334 334 332 332 331 330 331 331 330 331 332 331 331 331 331 330 329 329 330 331
285 285 283 284 281 279 283 285 285 285 282 286 288 288 287 287 287 287 285 284 284 281 278 283 288 280 281 284 287 291 292 292 293 296 297 297 298 299 301 300 306 319 327 330 331 332 333 333 333 335 337 336 337 338 338 337 337 337 337 337 337 336 337 337 337 336 334 333 333 331 330 330 329 331 331 331 330 329 329 330 330 328 328 329 329 330
288 292 293 285 283 285 285 286 287 286 287 289 287 285 285 285 284 285 286 285 281 276 279 285 287 285 277 283 289 288 290 293 295 296 297 298 299 300 300 300 308 321 327 329 331 332 333 334 334 334 335 336 337 337 337 336 336 337 337 336 336 336 337 337 337 336 334 333 332 332 330 330 330 331 330 329 329 329 329 329 329 328 328 330 332 331
285 286 286 286 290 288 287 285 288 289 289 287 284 282 281 280 283 282 282 283 276 275 282 286 286 287 278 281 288 293 294 295 295 295 296 297 298 300 299 302 313 324 328 329 330 331 332 332 332 334 334 335 335 336 336 336 336 336 336 336 335 335 336 337 337 336 335 332 331 332 331 331 332 331 330 329 329 330 329 329 329 330 331 332 332 330
281 283 286 287 291 287 285 283 284 287 287 285 283 282 276 273 275 273 277 275 275 275 282 286 287 284 283 286 289 293 294 295 297 298 298 298 299 299 298 307 320 326 328 329 329 330 331 331 331 332 334 335 334 335 335 335 335 335 336 335 335 335 337 337 337 336 335 332 330 331 331 331 333 332 331 330 330 330 329 329 330 331 331 331 331 329
278 284 284 286 287 289 287 280 279 279 283 283 281 279 276 272 271 269 274 277 279 282 286 285 287 282 287 288 292 293 295 298 298 299 300 300 300 300 299 310 323 326 328 329 329 330 331 331 332 333 334 335 335 335 335 335 335 335 335 335 335 335 337 337 336 336 334 332 331 331 330 332 333 332 331 330 329 328 329 330 331 332 332 331 330 329
270 273 280 283 279 288 286 284 283 282 282 282 285 283 280 278 275 270 274 272 274 277 282 287 282 278 281 284 293 295 297 299 299 300 300 300 300 301 300 312 324 326 328 329 329 330 331 332 332 333 334 335 335 335 335 335 335 335 334 335 334 335 336 336 336 336 334 333 331 330 331 333 333 332 330 329 329 329 329 330 331 331 332 331 329 328
277 276 282 288 288 288 285 288 288 285 283 285 286 287 281 279 283 275 276 277 276 276 278 281 279 281 286 291 295 297 298 298 299 298 299 299 300 300 300 311 324 326 327 329 329 330 331 332 332 333 334 335 335 335 335 335 335 334 334 335 335 335 336 336 335 335 334 333 332 330 331 333 332 331 330 328 328 329 330 329 330 330 330 330 328 326
278 276 286 288 291 288 288 289 287 288 276 282 284 279 282 289 285 279 280 282 277 278 277 281 285 287 291 290 294 295 296 296 297 298 297 297 299 298 299 310 323 326 327 328 329 329 331 332 332 333 334 335 335 335 335 335 335 335 334 335 335 335 336 335 335 335 334 333 332 331 332 332 331 329 328 328 328 328 329 329 329 329 328 328 327 326
276 277 286 286 284 289 292 291 290 289 289 285 280 283 289 291 289 282 274 277 277 274 276 282 280 282 283 278 291 293 294 295 296 296 296 297 297 297 299 306 322 326 327 329 330 330 331 332 332 333 334 335 335 335 335 335 336 336 335 335 335 335 335 335 335 334 334 333 332 331 331 331 331 330 328 328 328 329 328 328 328 328 327 327 327 326
285 276 282 286 286 289 293 291 287 290 291 286 285 294 285 278 277 282 279 274 274 274 272 280 283 283 284 283 288 290 292 294 295 295 295 295 296 297 299 303 320 326 327 328 328 329 330 331 331 333 333 335 336 336 336 336 336 336 335 336 336 335 335 335 335 334 334 333 332 332 332 331 330 329 329 329 330 329 329 328 328 327 327 326 326 325
287 277 279 288 286 290 290 287 279 283 289 290 291 289 293 289 283 280 281 283 281 274 274 277 281 280 286 284 289 291 293 294 293 292 294 295 297 298 300 302 316 324 326 327 328 329 330 331 331 332 333 334 335 335 336 336 336 335 335 335 335 335 335 334 334 334 332 332 332 332 332 331 330 330 330 330 329 328 328 328 327 326 326 326 325 324
282 285 272 281 291 287 280 285 282 283 282 284 284 284 288 288 291 287 286 283 278 274 275 272 276 279 283 289 291 292 294 294 293 295 296 297 298 299 301 301 311 322 325 327 328 329 329 330 331 332 334 335 336 336 336 336 335 335 335 334 334 334 334 334 334 333 332 332 332 332 331 330 330 329 330 330 329 328 327 327 326 326 326 325 323 323
282 281 276 280 282 282 283 290 288 288 288 287 285 284 286 284 281 277 277 287 284 281 277 275 274 278 287 295 294 293 293 294 296 297 297 298 298 299 301 302 311 321 324 327 328 329 329 329 330 332 334 335 335 335 335 335 335 334 334 334 334 335 334 333 333 333 332 332 333 332 332 330 330 330 330 329 328 327 326 326 325 325 324 323 322 322
288 286 282 278 281 282 286 290 293 296 295 294 292 287 291 288 288 282 275 279 284 284 286 282 278 280 291 295 295 295 295 296 297 299 299 299 299 300 302 303 314 321 324 327 328 329 329 329 330 332 333 334 334 334 334 334 334 334 333 334 334 334 334 334 334 334 333 333 333 332 332 331 330 330 329 329 329 327 326 325 324 324 323 322 321 322
295 283 280 281 285 287 290 291 293 295 294 289 290 292 290 286 288 285 283 284 282 282 281 280 279 278 289 296 296 296 296 298 298 299 299 298 299 300 301 305 317 321 324 327 328 329 329 329 330 332 332 333 333 333 333 334 334 334 334 334 334 334 334 334 334 334 333 333 333 333 332 331 331 330 329 328 328 327 326 324 324 323 322 322 322 322
283 284 282 278 276 277 281 286 287 293 291 287 286 289 291 292 291 290 289 288 281 284 284 279 276 279 289 298 299 298 297 297 299 300 300 299 299 302 304 310 319 322 324 326 327 327 328 328 330 331 332 332 332 333 333 334 334 334 334 334 333 333 334 335 335 334 333 333 332 332 332 331 331 330 329 328 327 326 325 323 323 323 323 323 322 322
287 284 282 276 271 268 268 270 273 277 282 286 289 289 291 290 289 286 281 283 280 285 285 279 277 284 290 299 296 296 296 296 299 300 300 302 301 305 311 315 319 323 324 326 326 326 327 328 330 331 331 332 332 332 333 334 334 334 334 334 334 334 334 335 335 334 333 333 332 331 331 331 331 330 329 327 327 326 324 323 323 323 324 323 322 320
285 287 285 282 278 276 279 283 288 289 287 283 285 288 289 292 294 291 288 283 281 283 283 283 285 285 293 297 299 299 298 296 297 297 300 301 303 310 315 318 321 323 325 325 326 327 328 328 329 330 331 331 331 332 333 333 333 333 333 333 333 334 334 334 334 334 334 333 332 331 331 331 331 330 328 327 326 325 324 323 324 324 323 323 321 320
288 284 285 285 285 285 287 287 290 290 287 288 287 287 289 289 289 288 284 282 289 285 281 288 292 290 292 296 298 302 302 302 298 297 300 303 310 315 318 319 318 323 325 326 326 326 327 328 329 329 330 330 330 331 332 333 333 333 333 332 333 334 334 334 334 333 333 332 331 331 330 331 330 329 327 327 326 325 324 324 324 324 323 322 321 320
287 282 288 287 286 288 289 289 291 290 290 289 289 288 287 289 288 285 285 288 290 283 281 290 293 292 293 297 300 303 305 304 303 297 303 307 314 317 319 319 321 322 324 325 325 326 327 327 328 328 329 329 329 329 330 332 332 332 332 332 333 334 333 334 334 333 333 332 331 330 331 330 329 328 326 326 325 324 323 323 323 323 322 321 320 320
288 283 288 288 286 288 290 291 291 289 290 290 288 288 288 288 288 288 289 290 292 291 294 294 293 294 297 301 304 306 307 306 304 301 308 313 315 318 319 320 321 322 323 324 325 326 327 327 328 328 328 328 328 329 330 331 331 332 331 332 333 333 334 334 333 333 332 331 330 330 330 329 327 326 325 325 324 323 323 323 323 322 321 320 320 319
287 282 290 288 284 285 288 291 291 290 289 287 290 289 289 290 290 290 292 293 294 293 294 294 293 295 299 303 305 307 306 307 303 308 311 314 317 318 319 320 321 322 324 325 326 326 327 327 327 328 327 327 327 329 330 331 332 332 332 332 332 333 333 333 332 332 331 330 330 329 328 327 325 325 324 324 324 323 322 322 322 322 321 320 319 319
291 284 288 284 282 282 288 288 289 290 289 288 288 289 289 289 288 290 288 292 291 289 291 292 290 292 299 302 305 306 308 307 305 306 309 313 317 319 319 320 321 322 323 324 325 326 326 326 326 326 326 326 328 329 330 331 332 332 331 331 332 332 333 332 332 331 330 330 329 328 326 325 324 324 323 323 323 323 322 322 321 321 320 319 318 317
290 285 282 282 281 278 285 288 287 287 285 283 283 288 291 291 291 293 296 297 294 294 289 284 292 296 298 303 304 305 306 307 307 306 308 310 311 319 320 321 322 323 324 324 324 324 325 325 326 326 326 327 328 329 331 332 331 331 331 330 332 332 331 331 331 330 329 328 327 325 325 324 323 323 322 322 323 322 322 321 321 320 319 318 318 314
291 285 281 285 280 280 284 286 285 280 274 278 290 294 294 291 291 289 291 294 296 297 295 295 298 301 303 304 304 303 306 305 306 307 307 309 313 311 313 321 323 324 324 325 325 325 325 325 325 326 327 327 328 330 331 332 331 331 331 331 331 331 331 331 330 329 327 326 325 324 324 323 322 321 321 322 322 322 321 320 319 319 319 317 314 312
288 283 280 285 281 281 283 282 276 272 276 289 293 296 296 294 293 293 296 297 297 299 301 299 299 301 302 305 304 306 309 310 311 311 312 311 311 311 315 316 317 322 323 324 324 324 324 324 324 324 325 327 328 329 330 330 330 330 330 330 329 330 330 329 328 326 325 324 323 323 322 322 321 320 321 321 321 320 319 319 319 318 316 314 312 311
284 282 281 282 283 281 278 277 272 272 284 292 293 296 297 296 295 295 292 295 299 298 301 298 299 301 304 306 306 308 311 311 312 312 312 313 313 313 312 315 318 320 321 324 324 323 323 324 324 325 326 327 328 329 330 329 330 330 329 329 329 328 328 327 326 324 323 322 322 322 321 321 320 320 320 320 319 319 318 318 317 316 314 312 311 310
292 289 286 283 286 278 277 278 279 285 287 288 291 293 295 291 291 291 285 288 297 299 299 296 301 305 306 307 308 308 308 307 307 309 313 312 313 314 315 316 319 320 321 320 321 323 325 325 326 326 327 328 329 328 328 329 330 329 329 328 328 328 326 325 324 323 321 321 321 321 321 320 319 319 319 319 318 318 317 316 316 315 312 311 309 308
294 287 288 285 281 282 279 278 278 277 275 281 290 297 302 303 301 300 291 288 298 305 302 303 304 305 307 307 307 306 305 305 300 304 309 311 315 317 319 320 321 321 323 323 323 324 325 326 326 326 328 327 327 327 328 328 329 328 327 327 326 326 324 323 322 321 321 321 321 320 320 320 319 318 318 318 317 317 316 316 315 313 311 310 308 307
296 295 290 285 282 281 279 277 276 274 276 283 294 299 302 304 302 300 289 282 293 303 304 305 307 308 308 306 305 304 300 296 297 300 307 310 313 318 318 320 322 323 324 324 324 324 325 326 327 327 327 327 325 326 327 327 327 326 325 324 325 324 322 321 321 321 320 320 320 320 319 319 319 318 318 317 317 317 316 315 313 311 310 310 309 307
291 285 284 283 281 281 279 278 275 277 281 289 297 300 302 303 302 290 281 278 293 303 305 306 308 306 305 304 303 302 299 292 299 305 307 310 312 316 319 319 321 323 324 325 325 326 326 326 325 326 326 325 325 326 326 327 326 324 323 323 324 322 321 320 321 321 321 320 320 319 319 319 318 318 318 317 316 316 315 313 311 310 309 308 307 306
285 283 285 283 283 282 282 279 278 280 285 295 300 302 303 303 291 282 277 285 299 303 305 306 306 306 306 305 304 302 302 301 302 308 310 310 312 313 314 320 322 324 324 325 324 318 326 326 327 326 325 326 326 327 327 327 325 323 322 322 322 320 320 321 321 320 320 319 319 318 318 318 318 317 317 317 316 315 313 312 310 309 308 307 306 305
284 284 283 284 282 282 280 281 280 280 289 301 303 303 302 294 284 279 288 300 304 304 306 306 306 306 306 305 306 306 308 312 312 311 310 310 310 312 314 316 320 322 324 323 320 323 326 326 325 324 325 326 326 327 327 326 323 321 321 321 321 320 320 320 320 320 319 318 318 317 317 317 317 317 316 316 315 313 311 311 311 309 308 306 305 303
286 284 282 281 283 283 280 279 279 279 287 302 302 297 302 287 290 301 304 306 307 307 306 306 307 309 311 310 309 310 311 311 311 312 313 314 315 317 318 320 321 321 321 320 321 322 324 324 324 324 324 326 326 327 327 325 321 320 319 319 319 320 320 320 320 319 318 317 316 316 316 316 315 315 316 314 313 312 311 310 310 309 307 305 304 302
292 286 283 284 286 281 279 279 282 288 297 304 302 292 301 304 306 306 306 304 307 307 306 307 308 309 311 312 312 310 310 311 313 315 316 318 319 320 320 320 320 321 321 322 323 321 321 322 323 324 325 326 326 326 325 323 320 319 319 318 319 319 319 319 318 317 316 315 315 315 315 315 315 315 314 313 312 312 311 310 309 308 307 305 303 301
295 291 290 285 291 285 284 288 296 301 303 305 304 304 305 307 307 307 306 306 306 308 310 308 309 311 311 312 310 311 312 313 314 317 317 316 317 317 317 318 318 316 316 317 318 317 320 322 323 323 323 324 324 324 323 322 319 317 317 318 318 318 318 317 316 315 314 314 314 314 314 314 314 314 313 312 312 311 310 309 309 307 306 304 302 301
298 299 298 295 293 298 300 301 303 302 303 304 305 305 304 306 307 306 306 305 308 309 309 308 311 311 311 312 313 312 313 314 315 316 316 316 316 315 316 317 317 317 318 319 318 319 321 324 323 322 321 322 323 322 321 321 320 317 317 318 317 318 317 316 314 313 313 314 313 313 314 313 313 313 312 312 312 311 311 310 308 307 305 304 302 301
300 300 297 291 296 291 288 299 301 301 303 304 304 306 305 306 306 307 306 306 309 310 310 312 312 312 312 312 313 312 312 313 314 314 314 314 314 314 315 315 316 317 317 318 319 318 322 323 321 320 319 319 321 321 320 320 319 318 317 317 318 317 316 315 313 312 312 312 313 313 313 312 312 311 311 311 311 311 311 310 309 307 305 304 302 300
292 303 296 295 293 287 289 298 302 304 303 304 303 303 303 305 307 308 308 310 310 310 311 311 313 311 313 312 312 312 312 313 312 312 312 313 313 314 314 315 316 317 319 321 321 322 322 321 320 319 319 318 320 320 320 319 318 318 318 317 317 316 315 313 312 312 312 312 312 312 312 312 302 307 310 310 310 310 309 309 309 307 305 304 303 301
298 300 288 295 291 295 300 302 302 302 302 304 305 305 305 306 306 307 308 310 310 309 309 310 311 312 312 312 311 311 312 312 313 313 314 314 315 314 314 316 317 318 319 320 321 320 321 320 319 319 318 318 319 319 318 318 318 318 317 317 316 315 314 312 309 312 312 312 312 312 311 311 310 310 310 310 309 309 308 309 309 307 306 307 306 305
297 293 297 293 287 287 290 296 301 291 291 300 303 305 306 307 308 308 308 309 309 309 309 308 309 310 311 311 310 310 310 311 311 312 313 313 314 315 315 315 315 315 316 319 320 320 319 318 318 317 317 318 319 318 317 317 317 317 317 317 316 315 312 311 311 311 311 312 312 311 310 310 310 311 310 309 308 303 298 289 291 297 307 304 299 298
296 298 295 289 288 288 298 302 303 302 301 303 304 306 307 309 308 308 307 308 309 310 310 308 308 308 309 310 311 311 310 311 311 313 313 313 313 314 314 314 314 315 316 317 317 317 316 317 316 316 316 317 317 317 316 316 316 316 316 316 315 314 312 312 311 311 311 310 311 309 310 310 310 310 310 308 306 304 301 300 298 291 289 297 296 295
Wind_Speed
2 5 5 8 10 10 7 6 9 7 5 6 5 3 7 9 9 6 9 8 10 10 13 15 16 10 11 16 16 13 7 5 8 15 17 13 14 12 9 9 12 13 15 14 16 16 16 15 13 12 11 10 11 11 12 13 12 14 14 13 13 10 10 10 9 7 7 7 8 8 9 9 7 8 7 7 6 7 7 7 8 8 7 5 5 4
1 4 9 12 11 6 5 3 5 7 6 6 6 7 8 8 10 9 8 8 12 11 11 10 14 15 13 13 16 14 13 11 9 10 14 14 13 14 12 11 10 12 7 8 8 11 12 10 11 11 10 11 13 11 13 15 16 15 13 13 11 9 11 11 10 8 7 6 7 7 8 6 7 7 7 6 6 7 7 8 8 7 6 5 5 5
3 8 12 10 4 1 4 6 7 5 5 8 8 7 8 10 8 10 12 12 9 13 15 8 8 14 15 10 12 15 16 17 14 10 10 13 13 13 14 13 8 8 8 9 12 14 14 13 12 12 13 14 17 18 18 15 14 12 11 11 12 11 11 10 9 8 7 5 7 8 5 8 5 3 6 6 5 6 7 7 8 6 6 6 5 6
6 10 15 4 1 4 6 7 7 7 7 7 6 7 10 7 6 7 12 13 15 9 6 13 12 7 9 13 12 14 17 16 17 13 11 10 13 12 13 12 11 9 12 14 14 14 14 14 13 11 12 13 11 11 10 12 14 12 11 12 12 12 11 10 8 8 8 8 6 7 8 6 7 5 4 4 5 5 6 6 4 5 6 6 6 5
12 10 1 4 6 6 9 8 7 5 7 7 9 8 8 9 11 10 6 8 11 14 12 6 9 11 9 12 15 13 14 16 16 17 15 10 9 10 10 9 9 11 13 15 15 15 14 13 14 16 16 13 14 15 16 15 14 12 16 14 13 11 10 8 8 9 9 8 7 6 6 6 4 3 5 4 4 5 5 5 5 6 5 6 6 5
12 10 5 7 6 6 7 7 7 6 6 6 9 10 10 10 13 11 12 14 7 10 9 11 7 11 11 14 15 11 11 15 15 18 20 16 11 8 7 10 7 7 11 16 18 18 18 18 16 11 12 15 15 16 15 14 14 14 13 12 11 10 9 9 10 10 10 8 9 9 9 9 8 8 7 10 10 7 7 7 4 4 5 6 6 5
9 4 6 9 9 7 7 7 5 6 7 7 7 7 11 13 13 13 15 12 9 10 9 5 12 7 3 10 10 10 14 17 13 17 20 19 17 11 11 9 8 11 11 13 17 18 18 16 16 15 16 16 16 14 11 11 12 13 13 12 11 10 8 9 10 10 9 9 8 10 10 9 9 10 6 3 4 7 5 5 7 6 4 5 7 5
4 4 5 5 4 7 8 10 6 5 6 9 5 6 8 11 13 15 16 15 10 6 13 14 7 10 4 11 11 14 16 15 16 17 17 18 18 16 12 10 9 12 13 14 16 18 19 20 20 19 19 16 16 13 12 12 11 13 14 14 13 9 9 9 9 9 10 10 8 9 8 8 8 8 7 5 5 5 6 6 6 5 5 4 4 6
4 4 8 9 7 6 7 5 4 5 7 7 5 8 11 10 11 13 13 13 9 7 11 13 11 7 10 6 5 15 17 19 21 20 17 15 15 16 16 11 12 14 15 16 16 17 18 20 20 19 17 15 14 13 14 14 13 13 13 13 11 11 10 9 10 9 9 10 9 8 8 7 6 6 5 5 5 6 6 7 5 5 4 3 3 4
3 4 5 7 4 7 7 6 4 5 8 8 10 9 8 9 11 12 11 12 9 5 13 17 10 6 8 4 7 9 18 21 21 21 17 14 13 16 18 12 13 14 14 17 20 20 21 20 20 19 17 16 15 14 13 11 11 11 11 13 13 12 10 10 11 10 9 9 9 9 8 9 6 5 5 6 7 7 6 7 6 4 4 4 3 4
2 2 1 4 7 7 5 5 6 6 11 10 7 7 10 12 11 9 10 9 5 10 16 21 16 7 7 6 13 13 15 16 13 11 13 12 13 15 16 15 12 13 14 15 18 20 21 19 17 14 17 16 13 12 13 12 12 11 12 13 14 13 10 11 12 11 10 9 9 9 9 9 9 8 8 8 8 7 7 8 7 6 5 4 5 4
2 2 4 3 6 3 4 5 5 6 4 1 2 5 5 8 8 9 9 6 8 11 17 19 16 13 9 8 11 13 7 10 14 17 18 16 16 18 14 9 13 14 15 16 17 16 15 11 10 12 14 14 14 13 13 12 12 12 12 12 14 12 12 11 12 12 10 9 8 8 9 9 10 10 9 10 10 9 9 8 8 5 5 5 4 4
9 10 5 6 4 6 3 6 5 6 5 7 5 5 5 3 4 6 6 9 9 14 13 15 14 10 18 12 7 11 10 12 16 17 19 19 20 20 11 11 13 14 16 17 16 15 14 15 15 14 13 13 14 14 15 15 14 13 13 14 15 14 13 13 12 13 11 9 9 9 10 9 9 10 10 9 10 8 8 8 8 8 7 5 5 5
6 3 6 9 7 8 7 6 5 4 8 8 8 7 7 8 6 6 7 4 8 13 16 13 5 13 9 6 14 16 17 18 15 15 17 21 22 19 12 12 14 15 17 17 17 16 17 16 15 17 17 16 15 15 16 15 14 13 13 14 15 15 13 13 12 13 11 10 9 8 9 9 9 9 9 8 9 8 8 8 9 8 8 7 7 6
7 7 10 9 5 8 12 14 11 7 5 10 8 9 7 8 6 7 6 12 14 6 10 17 8 5 6 7 8 17 15 17 19 18 18 19 19 17 12 14 16 17 16 17 17 18 18 18 18 17 16 16 16 17 16 15 14 13 13 14 15 15 14 14 13 11 11 9 10 8 8 9 8 9 8 8 8 9 8 7 8 7 7 7 6 5
11 8 5 10 4 2 13 14 13 11 7 6 7 7 12 12 7 5 4 6 7 5 8 9 8 4 9 6 11 15 18 16 13 15 16 18 15 15 10 14 15 16 17 16 18 18 19 19 18 17 16 16 16 18 16 16 15 14 15 15 16 17 15 14 13 11 11 10 9 8 9 10 9 7 7 6 6 7 8 9 8 8 7 7 6 4
3 9 6 4 4 7 9 9 12 13 10 9 7 10 8 10 11 8 11 5 5 5 10 1 5 7 13 8 12 15 17 17 16 19 17 15 15 11 11 15 17 17 17 17 18 18 19 16 17 17 18 16 16 16 16 16 16 17 16 15 15 15 13 13 13 12 12 11 9 8 10 9 9 9 9 8 8 8 7 8 7 7 7 7 6 6
6 4 5 4 7 11 14 14 15 15 12 2 10 11 13 13 12 8 5 3 4 5 7 6 5 6 8 9 6 17 17 18 20 17 11 13 10 9 11 15 17 18 18 20 19 18 18 18 18 16 17 19 19 19 18 18 15 15 15 16 16 15 16 14 14 13 12 11 10 9 10 9 10 9 8 8 9 8 8 6 6 6 7 7 7 6
4 9 9 10 16 5 9 14 12 16 19 11 8 5 6 9 13 8 4 6 4 5 3 6 8 11 10 9 3 14 19 20 19 14 8 8 8 11 12 15 18 20 18 17 17 16 16 16 18 18 18 17 19 20 19 18 16 14 13 13 14 15 14 13 12 10 9 10 8 8 10 10 8 8 8 8 8 8 9 8 7 7 7 6 6 7
3 3 3 1 5 6 5 2 6 8 12 16 12 7 4 1 5 4 6 9 3 5 4 5 9 9 7 8 10 13 15 17 12 7 8 10 11 13 12 14 17 17 17 17 17 17 17 18 19 18 18 17 16 14 12 14 13 15 14 14 13 12 11 11 12 12 11 10 9 8 9 9 9 8 9 9 9 8 9 9 9 8 7 7 6 5
1 2 5 3 3 4 1 3 8 9 9 10 10 10 4 4 6 7 5 7 4 3 4 2 6 5 6 6 9 14 18 17 12 11 9 10 12 13 14 15 16 17 17 18 18 17 17 17 16 17 17 17 16 15 14 15 15 14 12 13 13 15 15 14 13 12 10 9 9 10 10 10 9 10 9 9 9 9 8 8 8 8 7 6 6 7
2 3 7 7 6 3 5 4 6 9 10 7 10 10 8 9 5 0 7 4 5 5 5 3 6 7 9 3 7 9 10 6 10 13 13 13 14 15 15 16 19 18 19 19 18 17 17 16 16 15 13 12 12 13 14 13 12 12 13 13 13 13 12 13 13 12 11 9 9 10 10 11 9 9 9 10 9 9 9 8 8 8 7 7 6 7
5 3 2 6 8 8 8 13 13 8 10 7 9 10 9 6 4 5 3 6 4 7 5 7 2 6 8 5 5 7 7 7 9 10 12 12 15 16 15 17 19 20 18 17 18 18 17 17 17 17 17 16 16 16 15 14 14 14 13 12 12 14 14 13 12 10 10 9 9 11 10 10 10 10 10 10 9 9 9 8 8 8 9 7 7 6
7 1 1 7 7 11 10 12 9 7 6 2 6 6 7 8 7 8 7 4 7 9 4 1 8 3 4 4 6 6 5 6 7 9 10 9 10 12 14 16 17 17 17 18 17 16 16 16 15 15 15 15 14 13 14 14 13 12 12 13 12 14 14 12 11 10 10 9 10 11 11 10 10 11 11 10 9 10 9 8 8 7 8 8 8 8
2 1 2 4 2 2 3 2 5 4 4 3 3 8 10 8 11 9 10 7 5 10 9 7 8 4 5 6 7 8 1 5 7 7 9 10 7 10 13 15 15 16 15 16 17 17 16 15 16 16 16 16 15 14 13 13 13 13 13 12 13 12 13 11 10 10 10 10 11 11 11 11 11 11 11 10 9 10 9 9 8 8 9 9 8 9
1 3 4 4 0 3 2 2 2 0 3 3 4 8 8 9 9 6 6 2 2 6 5 3 2 7 7 6 7 7 4 5 6 10 7 14 13 12 11 14 14 15 17 18 17 17 18 17 16 16 16 15 15 14 14 13 13 13 13 13 12 12 12 12 11 11 11 10 12 11 12 12 11 12 11 10 10 11 10 9 9 9 8 9 10 9
2 3 4 6 4 5 5 5 5 3 1 2 2 4 7 6 8 9 6 6 5 5 7 4 4 2 5 5 6 4 4 8 9 5 7 6 7 12 15 15 15 15 17 19 18 17 15 16 18 18 17 15 15 13 13 14 14 13 12 12 11 10 11 11 11 11 11 11 11 11 12 12 11 11 11 10 10 9 9 9 9 9 9 8 10 10
3 3 7 10 8 8 6 7 6 6 7 7 7 7 5 7 6 5 5 7 2 6 7 3 2 2 4 5 4 7 3 3 4 7 6 8 12 12 11 13 14 14 14 14 15 17 18 18 17 17 16 14 14 13 12 12 13 14 14 14 12 11 11 10 11 11 11 11 12 11 12 11 10 11 11 10 10 10 9 9 9 9 8 8 9 9
4 3 3 5 4 6 7 8 7 8 9 8 8 5 5 6 4 3 7 8 4 2 6 6 4 2 2 4 6 7 6 3 5 6 7 12 12 11 12 12 13 14 14 17 17 17 17 16 16 16 15 14 14 14 14 12 12 10 9 10 11 11 11 11 11 11 11 12 12 12 11 10 9 10 10 11 11 10 10 9 9 8 8 8 8 7
0 3 3 2 6 7 6 6 8 10 6 7 5 5 7 5 5 6 10 12 6 5 5 1 9 1 4 4 6 8 6 4 3 5 5 9 13 14 13 13 15 14 16 16 16 16 17 17 17 16 16 14 15 15 13 12 12 13 13 12 11 11 10 11 11 11 11 12 11 12 12 11 9 10 11 12 11 11 10 9 9 9 9 9 8 8
2 2 3 2 3 4 3 3 3 3 4 3 2 3 3 0 5 9 9 8 6 3 2 1 9 2 2 3 4 4 2 5 8 10 11 9 14 16 14 13 13 15 16 17 17 16 14 15 16 16 16 16 16 16 15 14 13 12 12 12 11 11 10 11 10 11 11 11 11 10 11 11 11 11 11 11 11 10 10 10 8 9 9 9 8 9
2 2 4 3 4 5 3 9 6 2 1 1 1 1 2 3 4 5 4 5 1 4 4 2 3 2 3 3 4 3 8 10 6 6 6 7 13 15 16 15 14 14 15 15 15 14 14 14 14 15 16 15 15 15 13 13 13 13 13 12 11 10 10 11 10 11 10 11 11 11 12 11 11 11 11 11 11 11 10 9 9 9 9 9 9 8
1 1 4 3 3 3 7 6 7 1 5 6 6 2 3 3 3 7 7 5 5 3 1 1 4 9 4 4 3 5 8 9 10 4 7 5 1 12 19 16 16 16 16 15 15 15 16 16 16 15 14 13 14 14 14 14 14 14 13 12 11 10 10 11 11 11 10 10 11 11 12 12 12 11 10 10 11 10 10 10 9 10 10 10 8 8
0 1 0 1 1 6 9 9 4 2 0 5 4 3 3 3 4 6 9 7 7 4 4 6 6 6 7 2 5 5 9 5 3 3 2 4 10 4 2 10 18 17 16 16 18 18 16 13 12 12 13 13 12 12 12 13 12 11 10 11 10 11 10 11 11 11 10 10 11 11 11 11 12 11 11 10 10 10 10 10 10 9 9 8 8 9
0 1 0 0 0 5 7 8 3 2 5 3 4 1 4 8 9 9 8 12 7 7 1 5 9 8 5 1 3 6 7 6 7 7 6 5 7 4 11 9 4 9 16 15 14 13 14 15 13 12 11 11 12 11 11 10 10 9 10 10 11 10 11 11 11 12 11 11 11 11 11 11 11 11 11 11 10 10 10 10 9 9 8 8 10 10
1 1 1 0 2 2 3 5 1 1 5 6 7 4 6 6 6 3 6 7 4 8 9 9 10 5 2 3 3 2 7 7 9 9 7 5 6 10 8 7 11 8 6 11 18 16 16 16 17 17 14 12 12 12 12 11 10 11 10 10 11 11 10 11 13 11 10 12 12 12 11 12 12 11 11 11 11 10 10 10 10 9 7 7 7 7
4 2 1 3 0 0 0 0 4 4 6 6 2 4 4 4 4 0 5 8 4 2 5 6 4 2 5 5 4 1 1 4 8 7 7 5 6 10 12 7 7 10 11 5 3 10 12 14 15 14 14 14 13 13 12 11 11 11 11 11 11 12 11 9 12 15 13 11 11 12 11 12 12 11 11 11 11 11 10 10 9 7 6 8 8 9
4 1 1 2 2 1 1 4 3 3 1 5 2 4 3 2 4 7 4 5 1 5 2 6 6 4 6 5 5 2 2 8 4 2 5 3 6 11 10 11 9 7 9 12 12 10 12 12 12 13 15 15 14 13 12 12 12 12 11 11 11 13 13 11 10 11 12 12 12 12 11 11 12 11 11 11 11 11 9 8 7 7 7 10 10 9
1 1 2 1 3 4 1 1 1 2 2 4 9 11 14 11 7 7 3 3 3 7 9 3 6 4 6 6 3 3 4 4 3 2 2 1 2 8 11 10 11 13 13 14 15 16 15 16 18 17 16 16 15 13 13 13 14 12 12 12 12 11 12 12 11 12 13 11 11 11 10 10 11 12 11 10 10 10 10 9 8 7 6 8 8 9
1 1 1 2 2 2 0 1 2 2 1 5 12 12 15 13 9 2 1 2 6 12 11 4 6 5 3 3 4 6 7 6 6 5 3 4 4 7 13 11 12 13 13 11 10 12 13 14 15 16 17 17 15 13 13 13 13 13 12 11 11 12 12 12 11 11 11 11 10 10 9 9 10 10 11 10 9 9 10 8 8 8 8 8 8 8
1 2 1 6 1 2 1 3 2 3 2 5 10 14 14 11 1 2 3 3 10 13 9 9 4 1 3 5 2 4 4 2 3 4 3 1 3 3 4 10 13 13 15 15 16 15 14 14 15 16 16 14 14 13 13 13 13 13 13 12 12 12 11 11 10 11 12 10 10 11 11 9 9 10 8 9 10 9 8 8 8 8 9 9 8 8
2 1 1 1 3 4 2 2 5 4 1 7 14 13 7 2 1 2 1 5 9 11 10 6 10 5 2 3 2 2 3 5 7 6 4 2 1 1 3 3 5 6 9 13 16 16 15 14 13 12 11 11 13 13 13 14 14 12 12 13 14 12 10 11 11 11 11 11 10 10 10 10 9 10 9 8 9 8 8 6 8 9 9 8 8 10
1 1 3 3 2 0 0 1 3 3 1 12 17 7 8 3 1 3 6 7 7 9 8 7 9 12 1 4 1 4 6 6 8 7 6 4 4 5 4 6 10 13 13 13 11 10 14 13 13 14 13 11 12 12 13 15 15 13 11 12 12 12 12 12 11 11 11 10 10 10 10 9 10 8 7 9 9 10 9 8 8 8 9 10 9 9
4 2 1 2 3 1 0 1 1 1 6 8 9 2 6 2 4 5 4 5 7 8 8 3 4 9 3 5 7 3 4 10 7 7 7 6 7 7 7 5 5 5 7 7 10 12 10 11 11 11 10 11 11 11 12 15 14 14 13 11 10 11 12 12 11 11 11 10 9 9 8 9 9 9 8 9 10 10 10 9 8 8 8 9 10 9
1 2 1 1 1 1 1 2 3 3 5 3 4 4 6 7 4 3 1 1 4 7 7 6 7 6 4 5 3 3 5 4 8 7 7 6 8 8 9 9 10 11 11 11 9 4 5 11 12 10 10 10 12 10 11 13 14 13 13 11 12 12 12 12 11 11 10 10 9 8 8 7 8 8 8 8 10 10 9 9 9 8 7 8 8 9
4 4 2 1 2 3 3 4 3 4 4 6 4 3 5 6 5 2 3 1 3 3 8 11 6 3 2 2 7 4 5 4 5 5 6 6 6 6 7 8 7 8 12 14 13 10 8 9 12 12 11 11 12 10 10 12 16 16 11 10 10 12 13 13 12 11 10 9 9 9 9 8 7 7 8 8 7 9 9 10 10 9 8 8 8 8
2 4 2 2 2 2 1 3 4 3 4 6 6 7 3 4 5 5 4 3 5 8 8 7 1 5 6 7 8 9 9 8 7 6 5 4 5 5 6 7 8 10 11 10 10 11 11 11 12 13 13 12 11 11 9 10 8 12 14 12 11 11 12 12 12 11 10 10 9 9 9 9 7 6 7 7 7 6 7 7 7 7 7 7 8 8
2 4 2 6 4 1 3 5 5 3 3 3 3 6 9 9 9 7 4 3 6 7 8 2 7 9 7 8 5 6 8 10 10 7 5 4 3 3 4 5 6 7 7 9 11 12 11 11 12 13 13 13 10 11 12 11 11 10 12 13 11 11 12 12 12 11 10 11 10 9 9 8 10 10 7 7 7 7 6 6 6 8 9 10 10 10
5 3 2 5 1 4 5 6 10 5 2 7 8 6 5 6 8 9 8 8 11 9 9 3 8 8 8 6 5 5 6 6 8 9 5 2 3 3 3 2 2 3 6 9 10 12 12 12 12 13 14 12 10 10 10 11 12 12 12 11 11 12 12 10 10 10 9 9 8 8 8 8 8 8 8 7 6 5 4 7 9 9 8 7 8 10
3 6 3 3 3 3 2 2 4 3 3 9 10 10 10 9 8 9 10 11 12 9 9 8 8 7 7 7 6 6 6 6 6 6 6 7 7 6 6 6 4 6 4 6 8 9 11 12 13 11 12 11 10 11 11 11 10 10 11 12 11 11 11 10 9 8 8 7 7 7 7 7 7 7 8 8 7 7 4 7 7 2 6 6 6 8
3 5 2 1 1 1 4 7 4 2 1 3 7 9 10 10 8 10 10 9 10 8 6 5 6 9 10 9 7 7 7 6 4 4 6 5 7 7 8 8 5 5 6 9 11 9 8 9 14 13 12 11 11 11 11 10 10 10 10 10 10 11 11 11 9 7 7 7 7 8 8 8 7 7 7 7 7 6 7 5 5 9 7 3 8 10
Wind_Direction
126 175 200 211 221 220 225 226 240 261 308 321 330 284 250 254 266 261 249 247 246 254 242 235 241 239 235 222 227 233 244 244 224 230 235 235 243 232 215 182 188 193 194 192 186 184 189 187 179 170 164 165 168 164 161 160 165 168 170 168 171 164 155 154 155 154 149 146 151 151 162 169 174 172 169 175 169 172 179 178 181 187 189 175 168 156
40 201 233 225 226 218 237 268 287 291 293 293 286 280 273 257 254 250 259 239 242 242 255 240 235 236 229 231 224 222 232 237 226 220 227 229 229 241 227 214 184 197 209 181 174 187 189 180 169 164 160 157 160 173 165 170 173 173 170 166 161 161 165 164 164 154 147 148 159 154 167 159 170 171 173 177 176 175 180 183 185 186 179 166 158 131
267 230 242 241 240 216 238 247 257 264 274 260 254 265 272 261 277 284 269 271 261 240 245 247 232 232 228 224 224 217 217 229 225 205 209 210 225 229 238 232 196 143 172 180 182 181 186 180 170 165 168 173 174 171 175 173 164 164 161 165 167 172 168 168 159 148 145 140 149 152 162 157 157 190 180 168 175 173 176 187 187 174 164 154 145 145
278 249 247 261 292 220 238 234 243 254 253 256 255 249 247 259 254 255 256 263 269 258 259 244 250 256 238 221 219 215 216 223 231 221 219 203 203 215 220 216 219 158 163 173 176 185 185 176 171 166 169 172 166 167 169 169 166 161 164 172 174 173 169 166 159 142 132 137 142 139 146 152 152 174 182 169 160 169 160 172 160 165 161 151 153 153
231 254 51 172 212 210 233 234 233 228 253 247 249 252 253 253 251 251 287 290 293 283 248 257 253 247 227 224 222 219 214 220 222 235 232 225 219 210 211 225 221 183 168 172 177 183 177 173 175 177 176 165 167 175 177 173 169 169 174 176 172 170 169 158 148 141 136 129 126 128 128 136 118 113 152 151 175 169 153 136 158 172 159 153 157 155
245 246 254 272 264 238 233 240 228 215 243 257 247 245 255 258 263 269 274 273 281 289 265 212 244 243 222 222 221 216 225 229 224 222 229 228 224 222 211 211 211 199 184 172 178 180 180 179 178 173 167 172 178 178 179 173 169 167 169 166 167 168 162 153 152 146 142 145 144 146 152 166 173 180 178 185 180 164 162 166 153 157 163 157 155 146
234 201 198 225 234 244 236 237 225 202 240 243 241 228 252 261 265 266 262 260 252 245 279 224 232 261 294 218 216 214 218 222 226 227 227 228 228 215 218 204 191 189 195 186 181 180 179 180 171 174 178 180 177 178 166 166 169 167 164 166 166 164 158 155 155 149 143 147 155 164 172 176 181 182 197 168 141 149 138 135 154 165 172 168 146 141
197 167 194 222 239 242 245 242 224 196 224 244 247 236 246 250 254 254 258 256 264 295 286 290 250 238 260 228 202 208 217 222 220 224 223 223 223 226 217 210 189 192 188 180 187 184 181 177 177 178 183 179 176 165 160 166 168 168 168 168 167 161 159 162 155 152 151 156 162 166 172 178 182 185 185 166 146 134 138 143 152 159 173 164 134 140
157 203 207 227 230 238 236 228 233 201 231 251 233 227 251 257 256 254 254 259 257 294 277 273 267 249 227 255 229 193 215 218 220 218 219 221 222 225 228 204 198 190 186 178 181 184 186 184 183 180 177 175 162 162 167 170 172 172 168 164 159 159 160 162 157 155 157 159 167 166 167 176 185 168 159 131 137 140 144 138 142 155 162 146 126 140
198 183 193 186 184 225 226 226 224 229 251 251 256 256 258 267 268 266 256 253 251 248 260 258 251 254 261 207 206 216 213 215 217 216 216 213 216 222 228 211 195 190 185 181 179 184 190 188 183 179 171 164 169 167 165 162 164 168 164 163 163 163 164 163 160 156 160 161 165 168 171 172 172 153 137 142 150 148 148 143 150 152 154 159 151 150
249 308 254 217 213 225 226 222 217 228 247 280 293 253 242 249 260 266 265 254 238 236 243 252 257 237 279 233 204 206 216 213 208 217 214 212 219 223 221 213 189 186 180 179 185 188 188 189 179 164 166 168 158 160 160 162 166 168 169 166 166 165 162 166 162 161 166 165 170 174 175 169 163 160 150 149 153 147 146 149 151 158 161 168 173 167
333 287 246 201 217 240 189 245 211 226 238 65 260 255 244 251 252 259 261 221 217 242 239 245 247 242 248 244 238 222 209 205 198 205 208 209 217 224 223 197 189 182 178 179 184 187 183 171 166 164 163 159 158 156 162 164 165 169 171 167 163 164 166 170 164 165 171 167 171 175 174 167 165 160 162 163 161 162 156 154 153 158 153 163 165 159
256 242 249 275 208 212 209 225 232 226 237 227 237 267 235 234 185 242 228 216 207 228 232 235 237 260 241 245 258 237 203 206 203 203 199 205 216 222 205 183 183 181 176 177 180 176 174 173 166 166 163 158 161 165 166 168 171 171 170 168 165 170 169 172 167 170 173 168 170 174 175 166 163 163 162 162 158 161 158 159 156 160 161 148 157 169
269 277 245 249 257 216 218 210 192 230 222 216 216 206 212 213 208 227 211 212 233 238 240 240 217 252 278 273 224 220 207 196 194 199 199 204 215 217 193 182 180 182 178 176 176 174 175 174 170 166 165 167 167 167 169 171 171 171 171 171 169 170 171 170 171 170 173 173 170 172 171 163 162 164 161 159 160 163 162 162 161 162 162 166 176 168
250 285 247 209 239 196 212 212 207 210 187 214 218 213 224 228 201 209 196 198 217 215 233 231 218 215 185 222 215 211 202 194 191 196 202 208 212 216 189 179 179 180 180 175 173 175 177 175 169 166 167 168 169 169 172 174 173 169 170 171 171 169 174 172 173 170 170 171 171 169 160 159 162 161 159 161 162 158 155 159 158 163 162 166 173 158
215 234 240 194 211 153 209 205 209 205 231 227 203 208 230 231 248 259 198 217 220 196 237 224 209 204 227 228 209 202 195 204 193 197 204 211 213 212 172 174 179 181 177 175 175 177 179 172 168 166 166 170 171 172 174 174 171 171 174 175 175 173 173 171 168 171 172 175 170 156 155 160 159 154 149 147 154 155 156 157 163 163 161 164 154 131
190 246 198 191 213 223 240 228 212 188 215 193 203 218 230 246 237 255 282 232 154 179 249 213 240 244 276 310 216 194 195 200 199 204 201 206 212 196 171 176 179 178 175 176 177 178 176 170 168 168 167 169 172 173 174 175 175 174 172 174 175 172 170 169 166 167 174 173 165 156 154 155 152 153 157 157 153 151 154 156 160 155 152 154 148 141
164 249 147 163 218 225 225 236 222 199 206 169 198 217 235 245 263 235 232 227 177 162 241 213 228 242 224 255 235 186 193 199 209 209 193 203 200 178 177 178 178 177 178 177 178 176 170 167 169 171 174 171 172 175 176 177 175 174 174 175 171 170 171 169 164 169 171 170 164 154 154 155 155 155 150 147 147 148 145 149 143 138 147 162 154 137
196 274 260 227 239 275 277 221 207 197 199 208 212 170 201 186 222 236 277 265 175 197 241 225 197 233 208 242 211 203 187 201 208 204 190 197 187 185 178 179 180 178 174 173 174 170 167 168 171 172 174 176 175 176 176 172 170 171 173 174 172 172 171 166 160 161 165 167 164 157 154 152 148 144 146 147 146 147 150 151 151 154 154 148 138 126
161 223 276 331 105 210 191 219 186 206 198 210 224 262 173 109 266 249 204 257 205 225 202 253 182 228 213 220 191 202 190 206 196 189 199 199 189 187 181 174 181 175 172 172 172 172 170 171 172 171 172 173 173 172 170 168 168 171 171 168 168 163 160 159 158 161 167 168 156 151 146 145 143 146 148 150 148 151 153 153 153 149 152 157 146 132
44 167 278 210 135 47 330 197 203 194 196 202 208 218 199 237 232 209 252 227 214 179 202 183 209 258 251 216 175 196 197 198 175 186 196 199 196 191 181 172 177 177 174 172 173 171 168 168 170 172 173 173 171 168 165 168 173 172 166 168 167 166 165 165 164 163 165 160 154 147 148 142 142 148 148 147 152 148 149 151 149 150 150 137 139 137
115 182 223 292 313 260 262 229 211 199 209 206 203 213 201 214 250 302 270 234 224 192 212 154 238 263 263 192 188 187 224 195 185 181 194 200 195 189 184 172 174 178 176 171 170 165 164 167 168 169 168 163 160 162 168 171 162 161 169 170 167 163 165 165 167 168 161 159 151 151 146 141 142 145 147 147 150 146 147 148 149 147 142 143 135 137
147 152 215 259 237 240 221 231 229 179 172 192 181 213 202 227 197 210 258 275 237 240 175 202 182 273 240 233 193 202 182 193 202 198 195 195 194 190 176 173 176 173 170 168 165 164 164 166 167 165 163 164 168 171 169 166 167 170 169 165 166 167 170 170 165 160 157 154 151 152 146 140 143 146 149 149 149 149 148 147 146 149 144 139 136 133
112 107 223 254 274 259 261 261 235 143 96 70 242 225 214 241 238 240 241 272 325 301 269 153 219 257 282 269 251 232 200 184 187 196 181 178 183 172 163 168 172 172 167 163 162 161 162 162 160 159 163 166 166 165 168 170 168 165 165 166 167 170 168 164 160 160 159 154 152 150 144 144 145 149 152 150 150 149 150 148 147 144 139 138 135 131
139 199 217 297 310 339 11 217 132 157 159 190 196 207 222 243 252 271 284 271 264 261 222 125 202 260 272 339 307 284 240 153 180 217 165 149 152 154 161 167 167 161 157 157 157 158 156 157 160 163 164 166 168 168 165 164 165 166 168 166 170 171 166 160 156 160 161 156 152 153 148 147 150 154 154 148 148 150 150 150 146 147 144 141 141 139
65 156 187 251 146 115 153 123 207 346 187 199 219 220 227 225 241 267 273 273 215 269 193 143 224 244 280 339 350 297 243 187 203 189 201 154 153 148 156 165 160 154 157 157 155 154 159 163 162 163 167 168 166 164 163 164 166 168 167 170 169 165 162 160 160 161 162 158 155 156 152 152 156 157 153 147 149 151 151 150 150 149 149 148 144 143
170 198 199 230 187 184 201 209 220 164 5 236 244 215 230 226 234 240 256 266 254 287 294 235 176 306 329 349 332 314 274 193 196 212 162 115 135 152 160 162 161 159 157 156 157 160 156 156 164 167 166 165 163 161 162 162 165 166 165 167 168 163 160 161 160 161 164 160 158 157 157 159 160 154 149 148 149 149 149 152 154 151 151 153 149 148
164 227 223 216 236 239 246 262 276 288 265 254 261 265 256 260 262 279 252 259 249 343 315 296 269 113 272 302 301 296 306 274 238 189 156 133 142 153 162 159 156 152 151 149 149 154 161 165 162 162 163 161 159 157 159 164 165 165 165 167 167 160 158 162 160 163 163 160 160 160 159 159 155 148 146 145 148 150 151 152 153 152 147 146 150 151
161 230 262 183 257 267 262 265 264 257 244 234 220 216 240 247 260 268 277 268 267 221 225 276 282 124 261 264 271 274 266 233 204 202 183 155 147 147 150 152 152 148 148 151 157 162 160 159 162 161 160 159 155 156 159 160 159 155 157 163 165 161 161 158 160 163 163 161 162 161 157 150 147 143 143 145 148 150 151 153 151 147 147 150 151 150
79 251 236 252 292 293 271 240 229 229 237 229 212 207 225 246 274 279 277 269 261 289 294 343 279 204 238 266 279 277 282 241 196 143 109 133 142 148 149 151 150 150 153 156 159 162 162 161 159 160 158 157 158 158 158 159 160 161 162 166 165 162 154 154 160 161 160 160 161 156 151 146 142 142 145 147 149 151 152 151 149 148 151 155 153 151
122 274 331 325 327 286 266 294 225 210 234 234 231 219 223 172 283 271 271 297 358 341 333 82 290 331 263 228 266 284 304 64 98 129 146 149 146 148 149 152 150 154 157 157 159 160 160 159 159 158 159 160 160 161 162 162 161 160 161 163 164 161 157 154 157 157 157 157 155 150 141 141 144 146 150 150 147 148 150 150 149 151 154 156 156 152
76 262 24 21 352 304 319 348 309 32 133 124 276 349 26 353 314 294 310 287 281 255 239 74 277 314 285 302 255 347 43 52 64 110 120 154 156 148 152 153 154 153 154 156 156 153 153 157 159 161 161 160 159 159 158 158 160 163 166 162 163 156 152 153 154 151 153 153 151 144 141 140 142 146 147 148 149 149 149 147 154 157 158 158 156 148
130 32 4 346 335 272 288 319 308 95 41 356 298 234 215 243 252 298 293 261 218 185 61 112 215 247 264 282 60 20 50 48 54 53 111 87 47 161 156 157 158 156 154 153 152 157 160 161 163 161 158 156 158 159 162 158 160 165 160 158 156 147 154 153 151 145 147 148 143 142 142 142 145 145 146 150 150 150 148 152 161 162 162 164 156 145
52 100 198 220 26 275 304 322 323 61 129 223 241 185 150 216 236 257 273 273 267 176 209 181 206 253 281 347 85 70 58 31 50 6 13 116 129 95 87 156 159 156 156 157 160 161 160 154 152 154 156 157 155 154 154 156 157 150 146 147 145 149 151 149 149 144 144 142 140 140 139 142 142 144 147 147 148 149 151 157 165 166 163 151 147 153
264 95 175 215 115 295 323 348 69 146 229 254 310 328 176 215 220 222 223 239 242 252 16 318 286 247 251 295 94 92 100 85 57 46 32 63 69 79 124 98 95 148 152 154 154 153 151 149 143 138 140 146 147 146 143 142 143 141 145 149 146 145 146 148 144 142 144 142 141 140 142 144 143 143 147 147 148 151 153 159 160 163 157 153 156 154
195 108 251 199 186 325 20 13 57 251 241 283 282 239 212 211 210 186 286 271 266 236 190 214 218 236 136 94 52 106 113 111 71 39 22 16 96 106 75 93 116 112 151 165 158 155 151 152 153 152 150 144 143 146 145 146 149 150 152 148 143 142 144 152 144 142 143 144 145 144 145 145 144 145 149 148 151 152 156 162 164 159 152 145 144 143
149 103 77 331 218 218 209 135 217 279 337 334 69 57 25 337 355 158 225 275 200 251 250 199 196 176 114 98 120 102 92 70 56 30 7 15 77 99 107 91 94 119 115 81 121 145 147 144 142 142 140 145 147 146 148 151 153 150 148 148 149 146 143 149 150 148 147 144 145 144 147 147 146 148 151 150 151 154 159 161 162 151 146 144 147 146
139 101 259 16 313 104 13 357 344 32 253 276 241 291 268 298 265 257 203 262 253 328 247 178 164 156 113 112 118 138 37 64 47 15 338 352 103 101 106 115 110 106 123 136 137 135 136 135 131 137 142 144 147 149 150 153 150 148 148 148 150 149 146 148 148 141 140 146 148 146 148 149 148 151 154 154 156 157 158 159 155 152 156 151 151 152
54 27 118 136 281 16 30 128 232 137 245 214 320 319 315 320 312 284 174 265 303 348 324 210 144 164 142 145 150 83 66 116 205 253 254 204 157 127 127 134 140 147 150 151 150 148 148 149 147 146 143 145 150 156 154 151 147 146 146 148 149 143 143 148 149 147 144 146 147 144 146 151 151 152 156 156 155 156 158 161 159 150 148 146 147 148
104 359 36 345 289 239 55 349 283 195 232 332 324 322 316 305 309 77 208 270 295 344 334 308 155 159 142 82 92 80 118 166 209 231 215 187 195 166 147 155 153 156 150 133 134 141 141 138 137 145 151 156 156 151 148 145 144 144 143 148 147 147 150 151 149 144 136 141 143 141 141 149 150 153 155 155 152 158 159 151 145 151 147 143 144 145
112 322 248 244 282 296 161 269 299 305 296 323 318 314 307 299 20 142 207 244 307 321 333 354 331 187 135 118 103 115 221 176 207 170 115 111 144 235 232 173 166 150 142 145 146 144 144 151 153 156 159 156 152 148 145 143 141 146 149 149 150 149 149 144 141 138 137 142 145 144 146 151 153 153 155 152 153 156 153 153 152 147 146 142 142 141
238 189 272 24 271 255 233 226 231 239 239 336 328 320 290 349 255 212 238 275 301 311 310 15 339 316 61 111 141 159 159 114 104 93 90 96 191 189 151 101 95 111 135 141 146 149 149 152 150 150 151 148 148 147 146 144 142 147 150 154 153 149 142 139 139 139 139 145 148 146 149 155 158 157 153 151 147 150 152 151 150 149 146 143 143 143
234 171 222 193 244 72 34 14 354 341 295 357 327 338 12 87 275 282 306 308 328 323 327 0 355 308 249 96 113 156 130 107 109 109 109 110 120 128 132 143 142 143 142 141 147 155 148 145 148 151 146 145 145 150 150 145 144 145 148 152 149 142 140 140 138 137 137 139 142 147 150 152 152 152 154 153 155 155 156 154 153 151 145 143 139 139
221 255 294 271 176 184 115 135 206 232 284 328 354 17 316 359 288 298 331 321 342 356 322 4 319 274 253 135 150 146 130 119 106 115 113 114 108 98 91 86 88 104 122 134 139 141 134 132 136 134 137 139 142 148 146 142 143 148 148 147 140 138 136 137 136 134 135 139 142 143 146 150 155 156 155 155 155 159 156 159 157 151 150 147 145 145
12 295 204 211 271 165 206 235 284 301 301 331 337 328 303 298 299 279 262 242 9 345 321 306 260 237 185 139 108 119 120 113 124 125 118 116 114 114 117 121 118 102 78 67 51 38 123 142 134 129 132 138 139 141 139 139 138 140 141 144 141 140 138 135 134 132 135 139 141 142 145 150 156 155 153 156 156 156 158 156 155 150 150 146 145 149
261 246 224 306 295 321 288 263 292 310 341 350 336 289 288 317 323 339 289 283 49 11 313 273 242 138 77 65 109 49 34 46 87 96 99 103 106 108 115 115 107 117 130 135 139 147 163 146 130 131 132 137 136 133 138 144 143 140 138 134 138 139 137 134 132 133 140 143 146 147 147 150 152 151 152 152 159 162 163 164 165 161 159 156 156 160
330 350 330 53 341 21 53 346 348 345 354 349 338 311 317 344 347 343 331 311 50 19 305 263 92 72 79 70 72 79 62 42 37 33 42 60 101 129 134 127 133 147 147 144 146 145 147 144 138 134 134 135 141 134 129 125 123 129 132 137 142 137 135 133 134 138 144 149 149 146 149 150 151 149 151 154 154 159 164 165 163 159 161 160 159 162
329 352 6 14 17 109 247 307 304 306 319 324 330 341 352 347 349 1 3 340 56 46 296 345 72 61 60 57 51 77 93 91 73 33 20 32 43 73 92 115 131 151 162 154 153 151 141 141 141 135 134 135 138 136 136 131 133 141 139 137 139 136 135 137 141 145 152 154 150 149 151 152 150 151 155 159 158 154 153 157 164 167 171 170 168 166
292 311 50 319 281 282 282 349 354 327 338 13 2 350 346 353 350 356 360 23 34 24 315 354 80 95 81 76 75 83 77 56 88 108 102 42 60 42 32 73 99 139 154 154 152 148 145 139 134 134 130 129 130 127 126 131 137 137 131 127 132 136 136 140 140 141 147 147 143 146 150 150 157 160 158 157 156 146 142 171 181 176 185 201 196 189
341 21 325 10 18 1 342 330 338 29 346 338 350 346 345 348 357 6 359 19 32 26 334 343 26 26 51 57 60 56 69 71 48 23 61 73 76 86 78 61 65 81 69 113 119 118 124 126 123 119 118 120 120 117 120 125 128 128 131 135 137 136 136 137 132 133 142 144 145 144 146 151 159 159 159 159 157 139 89 30 58 87 192 196 176 161
359 332 317 114 144 278 316 356 357 303 279 318 340 345 350 352 3 24 358 22 37 22 352 348 33 42 37 27 28 59 73 78 35 62 69 61 87 94 93 88 71 95 93 92 98 91 94 108 117 126 122 122 121 121 122 122 126 129 136 142 144 141 140 135 131 135 141 144 153 158 157 157 161 164 162 158 157 151 137 117 46 36 32 156 157 158